Regional Weather Roundup
Issued by NWS Jackson, KY

Home | Current Version | Previous Version | Graphics & Text | Print | Product List | Glossary On
Versions: 1 2 3 4 5 6 7 8 9 10 11 12 13 14 15 16 17 18 19 20 21 22 23 24 25 26 27
000
ASUS43 KJKL 271410
RWRJKL

EAST KENTUCKY HOURLY WEATHER ROUNDUP
NATIONAL WEATHER SERVICE JACKSON KY
900 AM EST MON FEB 27 2017

NOTE: "FAIR" INDICATES FEW OR NO CLOUDS BELOW 12,000 FEET WITH
NO SIGNIFICANT WEATHER AND/OR OBSTRUCTIONS TO VISIBILITY.

* THESE REPORTS ARE NOT UNDER NWS QUALITY CONTROL AND MAY NOT
  REPORT WEATHER SUCH AS PRECIPITATION AND FOG.

KYZ079-080-083-085-087-088-110-112-115-119-120-271500
...EASTERN KENTUCKY...

CITY           SKY/WX    TMP DP  RH WIND       PRES   REMARKS
JACKSON        CLOUDY    43  21  41 NE5       30.29S
LONDON         CLOUDY    45  29  53 CALM      30.26S
SOMERSET*      CLOUDY    43  27  52 CALM      30.28S
MONTICELLO*    CLOUDY    45  25  45 CALM      30.27F
WILLIAMSBURG*  CLOUDY    43  25  49 CALM      30.26S
MIDDLESBORO*   CLOUDY    37  30  74 CALM      30.30F
HARLAN APT*    CLOUDY    37  27  65 CALM      30.28F
PIKE CO APT*   CLOUDY    43  25  50 NE7       30.29F
BIG SANDY APT* CLOUDY    44  26  49 E5        30.31S
MOREHEAD APT*  LGT RAIN  41  39  93 CALM      30.32S
ASHLAND*       CLOUDY    43  39  87 SE5       30.32S
$$

KYZ035-036-041-042-044-050-067-078-099-271500
...CENTRAL KENTUCKY...

CITY           SKY/WX    TMP DP  RH WIND       PRES   REMARKS
FLEMING/MASON* DRIZZLE   40  39  97 SE7       30.31S
DANVILLE*      LGT RAIN  37  36  93 SE5       30.27S WCI  34
LEXINGTON      LGT RAIN  43  39  86 SE8       30.26S
FRANKFORT      LGT RAIN  43  39  86 E3        30.24F
LOUISVILLE     CLOUDY    45  41  86 E6        30.23S
LEBANON*       CLOUDY    43  41  93 E5        30.24S
GLASGOW*       RAIN      45  45 100 SE8       30.20F
BOWLING GREEN  CLOUDY    47  44  90 E6        30.19F
$$

KYZ091>093-OHZ055-061-077-WVZ005-015-034-035-042-271500
...SOUTHERN OHIO/WEST VIRGINIA...

CITY           SKY/WX    TMP DP  RH WIND       PRES   REMARKS
COVINGTON      LGT RAIN  42  40  92 S10       30.26R
COLUMBUS       CLOUDY    43  23  45 S8        30.27R
DAYTON         CLOUDY    42  23  46 S9        30.25R
WILMINGTON     LGT RAIN  40  37  89 S9        30.27R WCI  34
HUNTINGTON     LGT RAIN  41  39  93 E5        30.33R FOG
CHARLESTON     CLOUDY    39  37  92 NE3       30.35R
PINEVILLE*     MOSUNNY   40  23  51 MISG      30.37S
BECKLEY        CLOUDY    40  19  43 E6        30.32R
BLUEFIELD      CLOUDY    39  17  41 SE3       30.33R
LOGAN CO APT*    N/A     43  27  52 CALM      30.31R
$$

VAZ002-007-008-TNZ017-027-036-066-071-271500
...SOUTHWEST VIRGINIA/EAST TENNESSEE...

CITY           SKY/WX    TMP DP  RH WIND       PRES   REMARKS
WISE*          CLOUDY    45  14  29 CALM      30.30S
JONESVILLE*      N/A     37  28  70 CALM      30.32F
ABINGDON*      MOSUNNY   45  20  37 E6        30.32R
BRISTOL        PTSUNNY   40  27  59 CALM      30.32R
MORRISTOWN*    SUNNY     43  23  45 E5        30.28F
SEVIERVILLE*   SUNNY     36  27  69 CALM      30.29S
KNOXVILLE      CLOUDY    41  26  55 NE9       30.28S
LAFOLLETTE*    SUNNY     37  30  75 CALM      30.32S
OAK RIDGE      CLOUDY    41  29  62 E3        30.31R
CROSSVILLE     CLOUDY    43  21  41 SE3       30.26S
NASHVILLE      CLOUDY    46  33  60 S6        30.21F
$$

...KEY TO REMARKS...
VSB - VISIBILITY IN MILES
WCI - WIND CHILL INDEX
HX  - HEAT INDEX

$$




USA.gov is the U.S. government's official web portal to all federal, state and local government web resources and services.